,,PA_Meas_PMT16A,,PR_Meas_QMR101_102,,RH_Meas_QMH101,,SR_Meas_QMS101,,TA_Meas_QMH101,,GenWind,,GenWind,
time,status,PA,status,PR,status,RH,status,SR,status,TA,status,DirAvg,status,SpdAvg,
2013-01-20, 07:55:04,VALID,921.302,VALID,0,VALID,90.9397,VALID,72.9525,VALID,19.9398,VALID,159,VALID,0,
2013-01-20, 07:56:04,INVALID,923.843,VALID,0,VALID,90.8178,VALID,74.9939,VALID,19.9593,VALID,163,VALID,0,
2013-01-20, 07:57:04,VALID,921.378,VALID,0,VALID,90.4899,VALID,77.1427,VALID,19.9773,VALID,143,VALID,0,
2013-01-20, 07:58:04,VALID,920.647,VALID,0,VALID,90.2765,VALID,78.7544,VALID,19.9984,VALID,155,VALID,0,
2013-01-20, 07:59:04,VALID,920.027,VALID,0,VALID,90.3146,VALID,80.366,VALID,19.9968,VALID,163,VALID,0,
2013-01-20, 08:00:04,VALID,919.647,VALID,0,VALID,90.1316,VALID,81.5478,VALID,20.0374,VALID,170,VALID,0,
2013-01-20, 08:01:04,VALID,919.547,VALID,0,VALID,90.0783,VALID,82.8371,VALID,20.0569,VALID,167,VALID,0,
2013-01-20, 08:02:04,VALID,919.613,VALID,0,VALID,90.0325,VALID,84.4487,VALID,20.0959,VALID,168,VALID,0,
2013-01-20, 08:03:04,VALID,919.643,VALID,0,VALID,89.3617,VALID,86.705,VALID,20.1139,VALID,164,VALID,0,
2013-01-20, 08:04:04,VALID,919.569,VALID,0,VALID,89.0415,VALID,89.7134,VALID,20.1724,VALID,141,VALID,0,
2013-01-20, 08:05:04,VALID,919.646,VALID,0,VALID,88.9729,VALID,93.1515,VALID,20.2129,VALID,148,VALID,0,
2013-01-20, 08:06:04,VALID,919.664,VALID,0,VALID,88.7518,VALID,96.8045,VALID,20.2324,VALID,170,VALID,0,
2013-01-20, 08:07:04,VALID,919.615,VALID,0,VALID,88.4697,VALID,100.565,VALID,20.2309,VALID,136,VALID,0,
2013-01-20, 08:08:04,VALID,919.586,VALID,0,VALID,89.0491,VALID,103.466,VALID,20.2699,VALID,171,VALID,0,
2013-01-20, 08:09:04,VALID,919.569,VALID,0,VALID,88.5917,VALID,105.4,VALID,20.3089,VALID,168,VALID,0,
2013-01-20, 08:10:04,VALID,919.46,VALID,0,VALID,88.2487,VALID,106.044,VALID,20.3869,VALID,128,VALID,0,
2013-01-20, 08:11:04,VALID,919.543,VALID,0,VALID,87.6159,VALID,106.474,VALID,20.4064,VALID,166,VALID,0,
2013-01-20, 08:12:04,VALID,919.683,VALID,0,VALID,87.4025,VALID,107.226,VALID,20.4454,VALID,186,VALID,0,
2013-01-20, 08:13:04,VALID,919.693,VALID,0,VALID,87.5321,VALID,108.086,VALID,20.525,VALID,143,VALID,0,
2013-01-20, 08:14:04,VALID,919.588,VALID,0,VALID,87.4863,VALID,109.375,VALID,20.5235,VALID,166,VALID,0,
2013-01-20, 08:15:04,VALID,919.655,VALID,0,VALID,87.2043,VALID,112.061,VALID,20.504,VALID,168,VALID,0,
2013-01-20, 08:16:04,VALID,919.661,VALID,0,VALID,87.1051,VALID,116.036,VALID,20.5235,VALID,156,VALID,0,
2013-01-20, 08:17:04,VALID,919.681,VALID,0,VALID,87.0975,VALID,121.516,VALID,20.543,VALID,194,VALID,0,
2013-01-20, 08:18:04,VALID,919.722,VALID,0,VALID,87.311,VALID,127.748,VALID,20.6015,VALID,179,VALID,0,
2013-01-20, 08:19:04,VALID,919.628,VALID,0,VALID,87.4482,VALID,134.516,VALID,20.6405,VALID,174,VALID,0,
2013-01-20, 08:20:04,VALID,919.647,VALID,0,VALID,86.4724,VALID,140.64,VALID,20.6795,VALID,179,VALID,0,
2013-01-20, 08:21:04,VALID,919.745,VALID,0,VALID,86.7392,VALID,145.475,VALID,20.7381,VALID,171,VALID,0,
2013-01-20, 08:22:04,VALID,919.719,VALID,0,VALID,86.9984,VALID,150.31,VALID,20.7771,VALID,155,VALID,0,
2013-01-20, 08:23:04,VALID,919.493,VALID,0,VALID,85.8092,VALID,156.005,VALID,20.7966,VALID,171,VALID,0,
2013-01-20, 08:24:04,VALID,919.828,VALID,0,VALID,85.9235,VALID,162.344,VALID,20.834,VALID,150,VALID,0,
2013-01-20, 08:25:04,VALID,919.594,VALID,0,VALID,85.6567,VALID,167.931,VALID,20.834,VALID,169,VALID,0,
2013-01-20, 08:26:04,VALID,919.632,VALID,0,VALID,86.0455,VALID,171.906,VALID,20.873,VALID,161,VALID,0,
2013-01-20, 08:27:04,VALID,919.612,VALID,0,VALID,86.076,VALID,173.195,VALID,20.9722,VALID,180,VALID,0,
2013-01-20, 08:28:04,VALID,919.617,VALID,0,VALID,85.0011,VALID,179.749,VALID,20.9706,VALID,161,VALID,0,
2013-01-20, 08:29:04,VALID,919.655,VALID,0,VALID,85.5271,VALID,183.832,VALID,21.0096,VALID,152,VALID,0,
2013-01-20, 08:30:04,VALID,919.728,VALID,0,VALID,85.3441,VALID,188.237,VALID,21.0502,VALID,164,VALID,0,
2013-01-20, 08:31:04,VALID,919.726,VALID,0,VALID,85.5652,VALID,191.568,VALID,21.0681,VALID,173,VALID,0,
2013-01-20, 08:32:04,VALID,919.7,VALID,0,VALID,84.9935,VALID,187.807,VALID,21.1071,VALID,127,VALID,0,
2013-01-20, 08:33:04,VALID,919.706,VALID,0,VALID,85.0468,VALID,185.229,VALID,21.1461,VALID,183,VALID,0,
2013-01-20, 08:34:04,VALID,919.644,VALID,0,VALID,85.1536,VALID,193.502,VALID,21.2047,VALID,175,VALID,0,
2013-01-20, 08:35:04,VALID,919.682,VALID,0,VALID,84.7648,VALID,201.882,VALID,21.2632,VALID,197,VALID,0,
2013-01-20, 08:36:04,VALID,919.722,VALID,0,VALID,85.0849,VALID,193.931,VALID,21.3217,VALID,174,VALID,0,
2013-01-20, 08:37:04,VALID,919.68,VALID,0,VALID,84.6504,VALID,195.328,VALID,21.3998,VALID,163,VALID,0,
2013-01-20, 08:38:04,VALID,919.676,VALID,0,VALID,83.9567,VALID,223.692,VALID,21.4388,VALID,78,VALID,0,
2013-01-20, 08:39:04,VALID,919.625,VALID,0,VALID,83.728,VALID,245.718,VALID,21.5363,VALID,119,VALID,0,
2013-01-20, 08:40:04,VALID,919.711,VALID,0,VALID,84.3302,VALID,284.719,VALID,21.6144,VALID,109,VALID,0,
2013-01-20, 08:41:04,VALID,919.725,VALID,0,VALID,83.1867,VALID,358.101,VALID,21.6924,VALID,104,VALID,0,
2013-01-20, 08:42:04,VALID,919.615,VALID,0,VALID,82.0432,VALID,307.497,VALID,21.7526,VALID,93,VALID,0,
2013-01-20, 08:43:04,VALID,919.665,VALID,0,VALID,81.4257,VALID,234.222,VALID,21.751,VALID,108,VALID,0,
2013-01-20, 08:44:04,VALID,919.564,VALID,0,VALID,81.5705,VALID,221.759,VALID,21.6924,VALID,116,VALID,0,
2013-01-20, 08:45:04,VALID,919.714,VALID,0,VALID,81.0598,VALID,227.883,VALID,21.712,VALID,98,VALID,0,
2013-01-20, 08:46:04,VALID,919.936,VALID,0,VALID,82.897,VALID,248.834,VALID,21.6729,VALID,98,VALID,0,
2013-01-20, 08:47:04,VALID,919.707,VALID,0,VALID,81.9288,VALID,276.231,VALID,21.6534,VALID,85,VALID,0,
2013-01-20, 08:48:04,VALID,919.811,VALID,0,VALID,82.4777,VALID,327.373,VALID,21.751,VALID,76,VALID,0,
2013-01-20, 08:49:04,VALID,919.707,VALID,0,VALID,82.6531,VALID,351.977,VALID,21.9266,VALID,115,VALID,0,
2013-01-20, 08:50:04,VALID,919.797,VALID,0,VALID,80.1145,VALID,348.861,VALID,22.1217,VALID,116,VALID,0,
2013-01-20, 08:51:04,VALID,919.836,VALID,0,VALID,80.8921,VALID,317.918,VALID,22.2176,VALID,117,VALID,0,
2013-01-20, 08:52:04,VALID,919.792,VALID,0,VALID,80.5795,VALID,355.738,VALID,22.3754,VALID,102,VALID,0,
2013-01-20, 08:53:04,VALID,919.706,VALID,0,VALID,80.2517,VALID,273.115,VALID,22.3169,VALID,130,VALID,0,
2013-01-20, 08:54:04,VALID,919.833,VALID,0,VALID,80.7396,VALID,249.586,VALID,22.2957,VALID,125,VALID,0,
2013-01-20, 08:55:04,VALID,919.834,VALID,0,VALID,80.1526,VALID,243.999,VALID,22.3559,VALID,170,VALID,0,
2013-01-20, 08:56:04,VALID,919.761,VALID,0,VALID,79.2225,VALID,242.602,VALID,22.434,VALID,141,VALID,0,
2013-01-20, 08:57:04,VALID,919.862,VALID,0,VALID,79.3293,VALID,243.462,VALID,22.3152,VALID,131,VALID,0,
2013-01-20, 08:58:04,VALID,919.9,VALID,0,VALID,80.2288,VALID,248.726,VALID,22.3152,VALID,172,VALID,0,
2013-01-20, 08:59:04,VALID,920.072,VALID,0,VALID,80.8311,VALID,262.694,VALID,22.3933,VALID,150,VALID,0,
2013-01-20, 09:00:04,VALID,919.806,VALID,0,VALID,80.9149,VALID,272.363,VALID,22.4908,VALID,38,VALID,0,
2013-01-20, 09:01:04,VALID,919.82,VALID,0,VALID,80.1069,VALID,281.066,VALID,22.4518,VALID,122,VALID,0,
2013-01-20, 09:02:04,VALID,919.79,VALID,0,VALID,78.3306,VALID,294.496,VALID,22.3933,VALID,139,VALID,0,
2013-01-20, 09:03:04,VALID,919.797,VALID,0,VALID,80.2288,VALID,334.035,VALID,22.294,VALID,135,VALID,0,
2013-01-20, 09:04:04,VALID,920.156,VALID,0,VALID,80.9988,VALID,477.683,VALID,22.3933,VALID,150,VALID,0,
2013-01-20, 09:05:04,VALID,920.078,VALID,0,VALID,80.9836,VALID,566.859,VALID,22.6665,VALID,108,VALID,0,
2013-01-20, 09:06:04,VALID,919.825,VALID,0,VALID,77.4615,VALID,390.334,VALID,22.9592,VALID,139,VALID,0,
2013-01-20, 09:07:04,VALID,919.892,VALID,0,VALID,77.1566,VALID,342.308,VALID,23.1154,VALID,131,VALID,0,
2013-01-20, 09:08:04,VALID,920.305,VALID,0,VALID,78.7041,VALID,306.422,VALID,23.0763,VALID,116,VALID,0,
2013-01-20, 09:09:04,VALID,919.972,VALID,0,VALID,77.5378,VALID,295.785,VALID,23.0763,VALID,66,VALID,0,
2013-01-20, 09:10:04,VALID,919.857,VALID,0,VALID,77.9952,VALID,299.546,VALID,23.0781,VALID,174,VALID,0,
2013-01-20, 09:11:04,VALID,919.865,VALID,0,VALID,77.2404,VALID,295.356,VALID,22.9805,VALID,144,VALID,0,
2013-01-20, 09:12:04,VALID,920.069,VALID,0,VALID,77.3548,VALID,281.818,VALID,22.9592,VALID,153,VALID,0,
2013-01-20, 09:13:04,VALID,920.281,VALID,0,VALID,77.4387,VALID,282.248,VALID,23.0763,VALID,154,VALID,0,
2013-01-20, 09:14:04,VALID,920.151,VALID,0,VALID,76.1884,VALID,293.099,VALID,23.1739,VALID,167,VALID,0,
2013-01-20, 09:15:04,VALID,920.005,VALID,0,VALID,76.0436,VALID,300.943,VALID,23.2325,VALID,179,VALID,0,
2013-01-20, 09:16:04,VALID,920.066,VALID,0,VALID,75.1821,VALID,315.555,VALID,23.252,VALID,138,VALID,0,
2013-01-20, 09:17:04,VALID,920.092,VALID,0,VALID,75.9521,VALID,306.53,VALID,23.1544,VALID,125,VALID,0,
2013-01-20, 09:18:04,VALID,920.042,VALID,0,VALID,75.8682,VALID,304.596,VALID,23.1349,VALID,202,VALID,0,
2013-01-20, 09:19:04,VALID,920.017,VALID,0,VALID,75.4642,VALID,318.133,VALID,22.9787,VALID,134,VALID,0,
2013-01-20, 09:20:04,VALID,919.885,VALID,0,VALID,76.4171,VALID,314.695,VALID,22.8812,VALID,183,VALID,0,
2013-01-20, 09:21:04,VALID,919.929,VALID,0,VALID,77.1032,VALID,331.671,VALID,22.9202,VALID,187,VALID,0,
2013-01-20, 09:22:04,VALID,919.686,VALID,0,VALID,76.2951,VALID,281.926,VALID,22.9202,VALID,181,VALID,0,
2013-01-20, 09:23:04,VALID,920.012,VALID,0,VALID,77.5987,VALID,299.653,VALID,23.0373,VALID,149,VALID,0,
2013-01-20, 09:24:04,VALID,919.871,VALID,0,VALID,76.196,VALID,319.315,VALID,23.0959,VALID,183,VALID,0,
2013-01-20, 09:25:04,VALID,919.831,VALID,0,VALID,75.0373,VALID,598.232,VALID,23.0959,VALID,175,VALID,0,
2013-01-20, 09:26:04,VALID,919.946,VALID,0,VALID,74.8924,VALID,592.001,VALID,23.1935,VALID,169,VALID,0,
2013-01-20, 09:27:04,VALID,919.868,VALID,0,VALID,73.4897,VALID,583.62,VALID,23.3691,VALID,164,VALID,0,
2013-01-20, 09:28:04,VALID,919.695,VALID,0,VALID,74.4122,VALID,570.62,VALID,23.6424,VALID,163,VALID,0,
2013-01-20, 09:29:04,VALID,919.791,VALID,0,VALID,72.0413,VALID,577.819,VALID,23.8181,VALID,120,VALID,0,
2013-01-20, 09:30:04,VALID,919.79,VALID,0,VALID,72.6359,VALID,582.868,VALID,23.9743,VALID,206,VALID,0,
2013-01-20, 09:31:04,VALID,919.786,VALID,0,VALID,73.4516,VALID,591.678,VALID,24.1092,VALID,175,VALID,0,
2013-01-20, 09:32:04,VALID,919.744,VALID,0,VALID,72.2242,VALID,599.629,VALID,24.402,VALID,185,VALID,0,
2013-01-20, 09:33:04,VALID,919.741,VALID,0,VALID,71.622,VALID,617.787,VALID,24.6363,VALID,175,VALID,0,
2013-01-20, 09:34:04,VALID,919.693,VALID,0,VALID,68.5116,VALID,616.605,VALID,24.7907,VALID,207,VALID,0,
2013-01-20, 09:35:04,VALID,919.673,VALID,0,VALID,70.3641,VALID,621.332,VALID,24.8511,VALID,82,VALID,0,
2013-01-20, 09:36:04,VALID,919.666,VALID,0,VALID,69.3273,VALID,616.927,VALID,24.7535,VALID,152,VALID,0,
2013-01-20, 09:37:04,VALID,919.647,VALID,0,VALID,69.2587,VALID,608.117,VALID,24.7535,VALID,116,VALID,0,
2013-01-20, 09:38:04,VALID,919.615,VALID,0,VALID,69.6856,VALID,598.662,VALID,24.4978,VALID,146,VALID,0,
2013-01-20, 09:39:04,VALID,919.609,VALID,0,VALID,69.1901,VALID,603.39,VALID,24.5564,VALID,191,VALID,0,
2013-01-20, 09:40:04,VALID,919.63,VALID,0,VALID,68.8623,VALID,598.232,VALID,24.6559,VALID,136,VALID,0,
2013-01-20, 09:41:04,VALID,919.612,VALID,0,VALID,69.6247,VALID,574.703,VALID,24.5192,VALID,142,VALID,0,
2013-01-20, 09:42:04,VALID,919.627,VALID,0,VALID,70.4785,VALID,529.577,VALID,24.5778,VALID,265,VALID,0,
2013-01-20, 09:43:04,VALID,919.626,VALID,0,VALID,71.5839,VALID,463.716,VALID,24.5973,VALID,153,VALID,0,
2013-01-20, 09:44:04,VALID,919.655,VALID,0,VALID,69.8381,VALID,392.375,VALID,24.7516,VALID,188,VALID,0,
2013-01-20, 09:45:04,VALID,919.657,VALID,0,VALID,68.969,VALID,319.208,VALID,24.9488,VALID,191,VALID,0,
2013-01-20, 09:46:04,VALID,919.664,VALID,0,VALID,67.7036,VALID,246.148,VALID,25.0445,VALID,207,VALID,0,
2013-01-20, 09:47:04,VALID,919.65,VALID,0,VALID,67.0403,VALID,195.113,VALID,25.0464,VALID,189,VALID,0,
2013-01-20, 09:48:04,VALID,919.651,VALID,0,VALID,67.6502,VALID,163.633,VALID,25.0659,VALID,218,VALID,0,
2013-01-20, 09:49:04,VALID,919.62,VALID,0,VALID,68.4507,VALID,147.302,VALID,25.1636,VALID,206,VALID,0,
2013-01-20, 09:50:04,VALID,919.581,VALID,0,VALID,68.0466,VALID,156.542,VALID,25.357,VALID,29,VALID,0,
2013-01-20, 09:51:04,VALID,919.508,VALID,0,VALID,67.5053,VALID,144.831,VALID,25.4351,VALID,204,VALID,0,
2013-01-20, 09:52:04,VALID,919.526,VALID,0,VALID,66.7811,VALID,141.822,VALID,25.3394,VALID,198,VALID,0,
2013-01-20, 09:53:04,VALID,919.486,VALID,0,VALID,66.4381,VALID,122.268,VALID,25.2984,VALID,168,VALID,0,
2013-01-20, 09:54:04,VALID,919.453,VALID,0,VALID,68.6489,VALID,114.64,VALID,25.2593,VALID,195,VALID,0,
2013-01-20, 09:55:04,VALID,919.453,VALID,0,VALID,68.0161,VALID,111.524,VALID,25.2593,VALID,191,VALID,0,
2013-01-20, 09:56:04,VALID,919.437,VALID,0,VALID,68.2753,VALID,113.35,VALID,25.3179,VALID,183,VALID,0,
2013-01-20, 09:57:04,VALID,919.432,VALID,0,VALID,66.217,VALID,108.838,VALID,25.357,VALID,105,VALID,0,
2013-01-20, 09:58:04,VALID,919.409,VALID,0,VALID,67.8255,VALID,109.59,VALID,25.1031,VALID,50,VALID,0,
2013-01-20, 09:59:04,VALID,919.391,VALID,0,VALID,68.1915,VALID,112.921,VALID,24.9702,VALID,77,VALID,0,
2013-01-20, 10:00:04,VALID,919.408,VALID,0,VALID,69.9601,VALID,110.772,VALID,24.8707,VALID,89,VALID,0,
2013-01-20, 10:01:04,VALID,919.411,VALID,0,VALID,69.8305,VALID,109.053,VALID,24.8707,VALID,78,VALID,0,
2013-01-20, 10:02:04,VALID,919.402,VALID,0,VALID,69.3578,VALID,108.516,VALID,24.9683,VALID,63,VALID,0,
2013-01-20, 10:03:04,VALID,919.451,VALID,0,VALID,67.2233,VALID,112.169,VALID,24.9878,VALID,158,VALID,0,
2013-01-20, 10:04:04,VALID,919.43,VALID,0,VALID,67.4596,VALID,127.855,VALID,25.1831,VALID,165,VALID,0,
2013-01-20, 10:05:04,VALID,919.383,VALID,0,VALID,65.9883,VALID,150.095,VALID,24.9683,VALID,127,VALID,0.00703125,
2013-01-20, 10:06:04,VALID,919.418,VALID,0,VALID,67.147,VALID,194.361,VALID,24.8316,VALID,136,VALID,0.416016,
2013-01-20, 10:07:04,VALID,919.373,VALID,0,VALID,66.6591,VALID,267.851,VALID,24.9097,VALID,181,VALID,0,
2013-01-20, 10:08:04,VALID,919.393,VALID,0,VALID,66.1026,VALID,370.457,VALID,25.064,VALID,158,VALID,0,
2013-01-20, 10:09:04,VALID,919.342,VALID,0,VALID,66.2551,VALID,470.162,VALID,25.3198,VALID,179,VALID,0,
2013-01-20, 10:10:04,VALID,919.357,VALID,0,VALID,66.0569,VALID,568.471,VALID,25.4956,VALID,149,VALID,0,
2013-01-20, 10:11:04,VALID,919.353,VALID,0,VALID,67.5358,VALID,605.323,VALID,25.5933,VALID,117,VALID,0,
2013-01-20, 10:12:04,VALID,919.388,VALID,0,VALID,63.4344,VALID,685.475,VALID,25.4565,VALID,132,VALID,0,
2013-01-20, 10:13:04,VALID,919.336,VALID,0,VALID,65.6529,VALID,678.276,VALID,25.3374,VALID,111,VALID,0.395703,
2013-01-20, 10:14:04,VALID,919.414,VALID,0,VALID,67.3148,VALID,633.473,VALID,25.3784,VALID,160,VALID,0,
2013-01-20, 10:15:04,VALID,919.436,VALID,0,VALID,63.3963,VALID,473.923,VALID,25.5151,VALID,164,VALID,0.152734,
2013-01-20, 10:16:04,VALID,919.427,VALID,0,VALID,65.104,VALID,631.217,VALID,25.5933,VALID,163,VALID,0,
2013-01-20, 10:17:04,VALID,919.41,VALID,0,VALID,64.9515,VALID,522.916,VALID,25.6128,VALID,181,VALID,0.0246094,
2013-01-20, 10:18:04,VALID,919.457,VALID,0,VALID,64.7304,VALID,520.338,VALID,25.5151,VALID,169,VALID,0.0105469,
2013-01-20, 10:19:04,VALID,919.423,VALID,0,VALID,65.8206,VALID,770.998,VALID,25.3374,VALID,170,VALID,0,
2013-01-20, 10:20:04,VALID,919.429,VALID,0,VALID,65.8053,VALID,837.181,VALID,25.4761,VALID,57,VALID,0,
2013-01-20, 10:21:04,VALID,919.417,VALID,0,VALID,64.4407,VALID,436.319,VALID,25.5523,VALID,123,VALID,0.100391,
2013-01-20, 10:22:04,VALID,919.395,VALID,0,VALID,62.6721,VALID,682.144,VALID,25.5718,VALID,170,VALID,0,
2013-01-20, 10:23:04,VALID,919.399,VALID,0,VALID,62.7102,VALID,821.602,VALID,25.5737,VALID,146,VALID,0,
2013-01-20, 10:24:04,VALID,919.391,VALID,0,VALID,64.8219,VALID,528.396,VALID,25.6519,VALID,184,VALID,0,
2013-01-20, 10:25:04,VALID,919.352,VALID,0,VALID,62.2071,VALID,368.738,VALID,25.689,VALID,161,VALID,0,
2013-01-20, 10:26:04,VALID,919.335,VALID,0,VALID,65.8587,VALID,348.324,VALID,25.5327,VALID,141,VALID,0,
2013-01-20, 10:27:04,VALID,919.305,VALID,0,VALID,65.752,VALID,331.778,VALID,25.5347,VALID,74,VALID,0,
2013-01-20, 10:28:04,VALID,919.296,VALID,0,VALID,67.0861,VALID,341.341,VALID,25.4546,VALID,35,VALID,0,
2013-01-20, 10:29:04,VALID,919.284,VALID,0,VALID,68.5116,VALID,508.089,VALID,25.4351,VALID,97,VALID,0,
2013-01-20, 10:30:04,VALID,919.247,VALID,0,VALID,68.1838,VALID,678.706,VALID,25.3394,VALID,83,VALID,0.295703,
2013-01-20, 10:31:04,VALID,919.297,VALID,0,VALID,64.6237,VALID,811.181,VALID,25.4546,VALID,128,VALID,0,
2013-01-20, 10:32:04,VALID,919.264,VALID,0,VALID,63.5183,VALID,779.593,VALID,25.5327,VALID,220,VALID,0,
2013-01-20, 10:33:04,VALID,919.238,VALID,0,VALID,63.7318,VALID,707.5,VALID,25.7691,VALID,225,VALID,0,
2013-01-20, 10:34:04,VALID,919.241,VALID,0,VALID,64.4407,VALID,825.578,VALID,26.0035,VALID,55,VALID,0,
2013-01-20, 10:35:04,VALID,919.286,VALID,0,VALID,64.5703,VALID,851.041,VALID,26.2164,VALID,54,VALID,0.000390625,
2013-01-20, 10:36:04,VALID,919.289,VALID,0,VALID,63.8309,VALID,626.919,VALID,26.0796,VALID,53,VALID,0,
2013-01-20, 10:37:04,VALID,919.275,VALID,0,VALID,65.9883,VALID,655.391,VALID,25.9624,VALID,121,VALID,0.0183594,
2013-01-20, 10:38:04,VALID,919.244,VALID,0,VALID,64.5627,VALID,798.825,VALID,25.8843,VALID,80,VALID,0.417578,
2013-01-20, 10:39:04,VALID,919.235,VALID,0,VALID,64.6847,VALID,823.429,VALID,25.7671,VALID,61,VALID,0,
2013-01-20, 10:40:04,VALID,919.227,VALID,0,VALID,64.9668,VALID,846.636,VALID,26.0015,VALID,112,VALID,0.13125,
2013-01-20, 10:41:04,VALID,919.234,VALID,0,VALID,63.0304,VALID,870.703,VALID,26.0601,VALID,123,VALID,0.0832031,
2013-01-20, 10:42:04,VALID,919.201,VALID,0,VALID,65.7672,VALID,830.198,VALID,26.1382,VALID,141,VALID,0.609375,
2013-01-20, 10:43:04,VALID,919.236,VALID,0,VALID,63.6022,VALID,445.773,VALID,26.2164,VALID,114,VALID,0.638281,
2013-01-20, 10:44:04,VALID,919.222,VALID,0,VALID,63.3506,VALID,320.175,VALID,25.9234,VALID,96,VALID,2.48516,
2013-01-20, 10:45:04,VALID,919.217,VALID,0,VALID,63.6022,VALID,297.612,VALID,25.5718,VALID,109,VALID,0,
2013-01-20, 10:46:04,VALID,919.22,VALID,0,VALID,64.151,VALID,306.422,VALID,25.396,VALID,117,VALID,0,
2013-01-20, 10:47:04,VALID,919.204,VALID,0,VALID,64.7152,VALID,351.977,VALID,25.1226,VALID,152,VALID,0,
2013-01-20, 10:48:04,VALID,919.172,VALID,0,VALID,67.3681,VALID,646.473,VALID,25.0055,VALID,104,VALID,0,
2013-01-20, 10:49:04,VALID,919.191,VALID,0,VALID,65.8968,VALID,813.437,VALID,25.2203,VALID,82,VALID,0,
2013-01-20, 10:50:04,VALID,919.179,VALID,0,VALID,65.5766,VALID,854.05,VALID,25.6304,VALID,82,VALID,0,
2013-01-20, 10:51:04,VALID,919.145,VALID,0,VALID,63.7318,VALID,826.975,VALID,25.9429,VALID,28,VALID,0.421875,
2013-01-20, 10:52:04,VALID,919.183,VALID,0,VALID,64.7533,VALID,823.536,VALID,26.2164,VALID,76,VALID,0,
2013-01-20, 10:53:04,VALID,919.16,VALID,0,VALID,61.6811,VALID,799.47,VALID,26.0796,VALID,132,VALID,0.352344,
2013-01-20, 10:54:04,VALID,919.214,VALID,0,VALID,64.7609,VALID,755.311,VALID,26.0015,VALID,131,VALID,0.881641,
2013-01-20, 10:55:04,VALID,919.212,VALID,0,VALID,62.3595,VALID,769.494,VALID,26.0621,VALID,175,VALID,0,
2013-01-20, 10:56:04,VALID,919.216,VALID,0,VALID,61.0026,VALID,840.297,VALID,26.2379,VALID,163,VALID,0.536328,
2013-01-20, 10:57:04,VALID,919.233,VALID,0,VALID,63.5412,VALID,935.49,VALID,26.2183,VALID,157,VALID,0,
2013-01-20, 10:58:04,VALID,919.219,VALID,0,VALID,59.8667,VALID,953.97,VALID,26.1793,VALID,136,VALID,0.101953,
2013-01-20, 10:59:04,VALID,919.223,VALID,0,VALID,60.1259,VALID,918.192,VALID,26.2574,VALID,164,VALID,0.271875,
2013-01-20, 11:00:04,VALID,919.196,VALID,0,VALID,60.1335,VALID,815.693,VALID,26.316,VALID,109,VALID,0.714453,
2013-01-20, 11:01:04,VALID,919.186,VALID,0,VALID,61.5515,VALID,804.197,VALID,26.1793,VALID,149,VALID,0,
2013-01-20, 11:02:04,VALID,919.198,VALID,0,VALID,61.5286,VALID,869.629,VALID,26.2574,VALID,60,VALID,0.0429688,
2013-01-20, 11:03:04,VALID,919.226,VALID,0,VALID,60.6824,VALID,779.808,VALID,26.277,VALID,192,VALID,0,
2013-01-20, 11:04:04,VALID,919.222,VALID,0,VALID,57.8846,VALID,803.66,VALID,26.316,VALID,167,VALID,0,
2013-01-20, 11:05:04,VALID,919.229,VALID,0,VALID,59.699,VALID,879.298,VALID,26.4508,VALID,261,VALID,0,
2013-01-20, 11:06:04,VALID,919.21,VALID,0,VALID,60.4156,VALID,816.016,VALID,26.8415,VALID,160,VALID,0,
2013-01-20, 11:07:04,VALID,919.173,VALID,0,VALID,58.5021,VALID,862.752,VALID,27.076,VALID,84,VALID,0,
2013-01-20, 11:08:04,VALID,919.202,VALID,0,VALID,57.0384,VALID,887.894,VALID,27.076,VALID,116,VALID,0,
2013-01-20, 11:09:04,VALID,919.169,VALID,0,VALID,59.0434,VALID,969.227,VALID,26.7243,VALID,157,VALID,0.185156,
2013-01-20, 11:10:04,VALID,919.165,VALID,0,VALID,57.5034,VALID,962.028,VALID,26.5094,VALID,110,VALID,0.758984,
2013-01-20, 11:11:04,VALID,919.156,VALID,0,VALID,61.6353,VALID,990.607,VALID,26.4117,VALID,96,VALID,0,
2013-01-20, 11:12:04,VALID,919.114,VALID,0,VALID,62.0317,VALID,1002.75,VALID,26.3336,VALID,8,VALID,0,
2013-01-20, 11:13:04,VALID,919.12,VALID,0,VALID,62.0241,VALID,998.021,VALID,26.5289,VALID,34,VALID,0,
2013-01-20, 11:14:04,VALID,919.123,VALID,0,VALID,59.1425,VALID,989.64,VALID,26.9587,VALID,180,VALID,0,
2013-01-20, 11:15:04,VALID,919.129,VALID,0,VALID,60.1335,VALID,285.364,VALID,27.3886,VALID,17,VALID,0,
2013-01-20, 11:16:04,VALID,919.113,VALID,0,VALID,57.9456,VALID,284.182,VALID,27.4863,VALID,56,VALID,0,
2013-01-20, 11:17:04,VALID,919.1,VALID,0,VALID,56.985,VALID,993.723,VALID,27.4472,VALID,191,VALID,0,
2013-01-20, 11:18:04,VALID,919.104,VALID,0,VALID,54.9191,VALID,1001.24,VALID,27.4472,VALID,167,VALID,0.349609,
2013-01-20, 11:19:04,VALID,919.106,VALID,0,VALID,55.5976,VALID,1019.29,VALID,27.4277,VALID,166,VALID,0,
2013-01-20, 11:20:04,VALID,919.106,VALID,0,VALID,55.6357,VALID,1034.66,VALID,27.4863,VALID,138,VALID,0,
2013-01-20, 11:21:04,VALID,919.099,VALID,0,VALID,55.872,VALID,1049.38,VALID,27.3475,VALID,114,VALID,0.173047,
2013-01-20, 11:22:04,VALID,919.108,VALID,0,VALID,56.5124,VALID,1065.49,VALID,27.367,VALID,190,VALID,0,
2013-01-20, 11:23:04,VALID,919.067,VALID,0,VALID,56.3294,VALID,1066.89,VALID,27.6427,VALID,181,VALID,0,
2013-01-20, 11:24:04,VALID,919.08,VALID,0,VALID,57.8084,VALID,621.547,VALID,27.7969,VALID,154,VALID,0,
2013-01-20, 11:25:04,VALID,919.052,VALID,0,VALID,58.22,VALID,379.052,VALID,28.0531,VALID,53,VALID,0.109375,
2013-01-20, 11:26:04,VALID,919.066,VALID,0,VALID,57.3891,VALID,1054.32,VALID,28.1508,VALID,124,VALID,0.225391,
2013-01-20, 11:27:04,VALID,919.116,VALID,0,VALID,54.0958,VALID,1085.69,VALID,27.6231,VALID,97,VALID,0.0148437,
2013-01-20, 11:28:04,VALID,919.08,VALID,0,VALID,57.3357,VALID,1101.59,VALID,27.6231,VALID,82,VALID,0,
2013-01-20, 11:29:04,VALID,919.065,VALID,0,VALID,55.8949,VALID,486.279,VALID,27.8576,VALID,32,VALID,0,
2013-01-20, 11:30:04,VALID,919.056,VALID,0,VALID,56.177,VALID,1104.28,VALID,27.9358,VALID,87,VALID,0,
2013-01-20, 11:31:04,VALID,919.049,VALID,0,VALID,54.6523,VALID,944.193,VALID,28.014,VALID,189,VALID,0.0117188,
2013-01-20, 11:32:04,VALID,919.051,VALID,0,VALID,56.924,VALID,999.955,VALID,28.0726,VALID,14,VALID,0,
2013-01-20, 11:33:04,VALID,919.037,VALID,0,VALID,57.29,VALID,494.552,VALID,28.1508,VALID,64,VALID,0,
2013-01-20, 11:34:04,VALID,918.973,VALID,0,VALID,55.7272,VALID,439.005,VALID,27.8946,VALID,70,VALID,0.775781,
2013-01-20, 11:35:04,VALID,919.002,VALID,0,VALID,58.9138,VALID,428.798,VALID,27.3495,VALID,90,VALID,0.0148437,
2013-01-20, 11:36:04,VALID,918.942,VALID,0,VALID,59.9124,VALID,1129.1,VALID,26.9978,VALID,28,VALID,1.42461,
2013-01-20, 11:37:04,VALID,918.936,VALID,0,VALID,62.4891,VALID,412.144,VALID,27.1737,VALID,80,VALID,0,
2013-01-20, 11:38:04,VALID,918.918,VALID,0,VALID,58.1209,VALID,462.534,VALID,27.2518,VALID,74,VALID,0,
2013-01-20, 11:39:04,VALID,918.901,VALID,0,VALID,59.2721,VALID,477.254,VALID,27.113,VALID,63,VALID,0,